Change the Weather History Date:

Friday, March 8, 2013

  Actual Average (KDEN) Record (KDEN)
Temperature  
Mean Temperature 38 °F 38 °F  
Max Temperature 44 °F 52 °F 74 °F (1989)
Min Temperature 32 °F 24 °F -2 °F (1969)
Degree Days  
Heating Degree Days 27 27  
Month to date heating degree days 223  
Since 1 July heating degree days 4662  
Cooling Degree Days 0 0  
Month to date cooling degree days 0  
Year to date cooling degree days 0  
Moisture  
Dew Point 32 °F    
Average Humidity 88    
Maximum Humidity 100    
Minimum Humidity 66    
Precipitation  
Precipitation 0.00 in 0.02 in 0.51 in (1992)
Month to date precipitation 0.16  
Year to date precipitation 0.94  
Snow  
Snow 0.00 in - - ()
Month to date snowfall  
Since 1 July snowfall  
Snow Depth -    
Sea Level Pressure  
Sea Level Pressure 29.86 in    
Wind  
Wind Speed 9 mph (West)    
Max Wind Speed 13 mph    
Max Gust Speed -    
Visibility 9 miles    
Events      
T = Trace of Precipitation, MM = Missing Value Source: NWS Daily Summary

Daily Weather History Graph

Daily Weather History Graph

Search for Another Location

Airport or City:

Trip Planner

Search our weather history database for the weather conditions in past years. The results will help you decide how hot, cold, wet, or windy it might be!

Date:

Astronomy

Mar. 08, 2013 Rise Set
Actual Time 6:20 AM MST 5:58 PM MST
Civil Twilight 5:53 AM MST 6:25 PM MST
Nautical Twilight 5:22 AM MST 6:56 PM MST
Astronomical Twilight 4:50 AM MST 7:27 PM MST
Moon 4:05 AM MST (3/8) 2:56 PM MST (3/8)
Length of Visible Light 12h 31m
Length of Day
11h 37m
Waning Crescent, 11% of the Moon is Illuminated
Mar 8
Waning Crescent
Mar 11
New
Mar 19
First Quarter
Mar 27
Full
Apr 2
Last Quarter

Hourly Weather History & Observations

Time (MST) Temp. Windchill Dew Point Humidity Pressure Visibility Wind Dir Wind Speed Gust Speed Precip Events Conditions
12:16 AM 39.2 °F 31.6 °F 30.2 °F 70% 29.94 in 10.0 mi West 12.7 mph - N/A   Clear
12:35 AM 37.4 °F 29.3 °F 30.2 °F 75% 29.95 in 10.0 mi WSW 12.7 mph - N/A   Clear
12:56 AM 37.4 °F 29.3 °F 32.0 °F 81% 29.95 in 10.0 mi West 12.7 mph - N/A   Clear
1:15 AM 37.4 °F 32.1 °F 32.0 °F 81% 29.95 in 10.0 mi WSW 6.9 mph - N/A   Clear
1:35 AM 35.6 °F 29.2 °F 32.0 °F 87% 29.96 in 10.0 mi West 8.1 mph - N/A   Clear
1:56 AM 33.8 °F 25.3 °F 32.0 °F 93% 29.94 in 10.0 mi West 11.5 mph - N/A   Clear
2:16 AM 33.8 °F 27.0 °F 32.0 °F 93% 29.93 in 10.0 mi West 8.1 mph - N/A   Clear
2:30 AM 33.8 °F 25.8 °F 32.0 °F 93% 29.93 in 10.0 mi WSW 10.4 mph - N/A   Clear
2:52 AM 33.8 °F 26.4 °F 32.0 °F 93% 29.93 in 10.0 mi WSW 9.2 mph - N/A   Clear
3:16 AM 32.0 °F 25.6 °F 30.2 °F 93% 29.93 in 10.0 mi WSW 6.9 mph - N/A   Clear
3:36 AM 33.8 °F 26.4 °F 30.2 °F 87% 29.93 in 10.0 mi WSW 9.2 mph - N/A   Clear
3:56 AM 33.8 °F 25.3 °F 32.0 °F 93% 29.93 in 10.0 mi West 11.5 mph - N/A   Clear
4:16 AM 32.0 °F 24.2 °F 30.2 °F 93% 29.93 in 10.0 mi WSW 9.2 mph - N/A   Clear
4:32 AM 33.8 °F 27.7 °F 32.0 °F 93% 29.93 in 10.0 mi WSW 6.9 mph - N/A   Clear
4:52 AM 32.0 °F 23.6 °F 30.2 °F 93% 29.93 in 10.0 mi WSW 10.4 mph - N/A   Clear
5:16 AM 33.8 °F 27.0 °F 32.0 °F 93% 29.94 in 10.0 mi West 8.1 mph - N/A   Clear
5:35 AM 32.0 °F 24.8 °F 30.2 °F 93% 29.94 in 10.0 mi WNW 8.1 mph - N/A   Clear
5:55 AM 32.0 °F 27.5 °F 30.2 °F 93% 29.95 in 10.0 mi WNW 4.6 mph - N/A   Clear
6:13 AM 32.0 °F 24.2 °F 30.2 °F 93% 29.94 in 10.0 mi WNW 9.2 mph - N/A   Clear
6:36 AM 32.0 °F 24.2 °F 30.2 °F 93% 29.93 in 10.0 mi West 9.2 mph - N/A   Clear
6:53 AM 32.0 °F 24.8 °F 30.2 °F 93% 29.94 in 7.0 mi West 8.1 mph - N/A   Clear
7:52 AM 32.0 °F 23.6 °F 30.2 °F 93% 29.93 in 3.0 mi West 10.4 mph - N/A   Mostly Cloudy
9:55 AM 33.8 °F 25.8 °F 32.0 °F 93% 29.93 in 2.0 mi West 10.4 mph - N/A   Overcast
10:55 AM 39.2 °F 34.2 °F 32.0 °F 75% 29.89 in 7.0 mi West 6.9 mph - N/A   Mostly Cloudy
11:55 AM 39.2 °F 35.0 °F 32.0 °F 75% 29.87 in 7.0 mi West 5.8 mph - N/A   Mostly Cloudy
12:48 PM 41.0 °F - 33.8 °F 76% 29.84 in 7.0 mi Calm Calm - N/A   Mostly Cloudy
1:55 PM 44.6 °F 42.2 °F 35.6 °F 71% 29.78 in 7.0 mi NNW 4.6 mph - N/A   Mostly Cloudy
2:47 PM 44.6 °F 42.2 °F 33.8 °F 66% 29.77 in 10.0 mi NW 4.6 mph - N/A   Mostly Cloudy
3:58 PM 42.8 °F 41.1 °F 35.6 °F 76% 29.77 in 10.0 mi NE 3.5 mph - N/A   Mostly Cloudy
9:16 PM 35.6 °F 32.8 °F 33.8 °F 93% 29.73 in 10.0 mi SW 3.5 mph - N/A   Scattered Clouds
9:36 PM 35.6 °F 31.7 °F 33.8 °F 93% 29.73 in 10.0 mi SW 4.6 mph - N/A   Mostly Cloudy
9:55 PM 37.4 °F 34.9 °F 33.8 °F 87% 29.73 in 10.0 mi SSW 3.5 mph - N/A   Overcast
10:16 PM 33.8 °F 29.6 °F 32.0 °F 93% 29.72 in 7.0 mi SW 4.6 mph - N/A   Scattered Clouds
10:36 PM 33.8 °F 29.6 °F 32.0 °F 93% 29.70 in 7.0 mi WSW 4.6 mph - N/A   Clear
10:53 PM 33.8 °F 28.6 °F 32.0 °F 93% 29.70 in 7.0 mi WSW 5.8 mph - N/A   Scattered Clouds
11:16 PM 33.8 °F 30.8 °F 32.0 °F 93% 29.69 in 5.0 mi WSW 3.5 mph - N/A   Scattered Clouds
11:36 PM 33.8 °F 30.8 °F 32.0 °F 93% 29.67 in 7.0 mi WSW 3.5 mph - N/A   Mostly Cloudy
11:56 PM 32.0 °F 28.7 °F 32.0 °F 100% 29.66 in 4.0 mi West 3.5 mph - N/A   Scattered Clouds